Location: Pardubice
(50.0330°N, 15.7830°E)
Time: 02:55:46
(UTC+02:00)

ISS - Visible Passes

Search period start: 02 October 2022 00:00
Search period end: 12 October 2022 00:00
Orbit: 416 x 420 km, 51.6° (Epoch: 01 October)

Date Brightness Start Highest point End Pass type
(mag) Time Alt. Az. Time Alt. Az. Time Alt. Az.
02 Oct -2.3 19:44:38 10° W 19:47:43 33° SSW 19:50:21 13° SSE visible
03 Oct -2.9 18:56:42 10° WNW 18:59:59 47° SSW 19:03:15 10° SE visible
03 Oct -0.8 20:35:19 10° WSW 20:36:07 11° SW 20:36:55 10° SSW visible
04 Oct -1.1 19:46:27 10° W 19:48:38 16° SW 19:50:49 10° S visible
05 Oct -1.5 18:58:27 10° W 19:01:14 23° SW 19:04:00 10° SSE visible
07 Oct -0.5 19:01:56 10° WSW 19:02:48 11° SW 19:03:40 10° SSW visible
